EW3230 Weather Reports


time (UTC)temp
C
wind
direction
speed
KPH
gust
KPH
rain 1hr
cm
rain 24hr
cm
rain mn
cm
humidity
%
barometer
mb
20260902134919 21 91 4.8 16.1 0.00 0.28 0.00 75 1021.5
20260902133920 20 56 1.6 8.0 0.00 0.28 0.00 75 1021.4
20260902132922 20 54 1.6 8.0 0.00 0.28 0.00 74 1021.5
20260902131920 19 110 1.6 9.7 0.00 0.28 0.00 69 1021.5
20260902130918 18 87 0.0 3.2 0.00 0.28 0.00 62 1021.6
20260902130416 18 71 0.0 3.2 0.00 0.28 0.00 61 1021.7
20260902124915 17 87 0.0 1.6 0.00 0.28 0.00 59 1021.7
20260902123914 17 92 0.0 0.0 0.00 0.28 0.00 59 1021.6
20260902122915 17 91 0.0 1.6 0.00 0.28 0.00 59 1021.8
20260902121913 17 263 0.0 0.0 0.00 0.28 0.00 59 1021.9
20260902120914 16 263 0.0 0.0 0.00 0.28 0.00 60 1022.1
20260902115914 16 262 0.0 0.0 0.00 0.28 0.00 60 1022.1
20260902114914 16 262 0.0 0.0 0.00 0.28 0.00 61 1021.9
20260902114410 15 263 0.0 0.0 0.00 0.28 0.00 61 1021.7
20260902113410 15 263 0.0 0.0 0.00 0.28 0.00 61 1021.7
20260902111907 15 262 0.0 0.0 0.00 0.28 0.00 61 1021.7
20260902111409 15 262 0.0 0.0 0.00 0.28 0.00 61 1021.5
20260902104908 15 263 0.0 0.0 0.00 0.28 0.00 61 1021.2
20260902103907 15 263 0.0 0.0 0.00 0.28 0.00 61 1021.1
20260902102908 15 263 0.0 0.0 0.00 0.28 0.00 61 1021.0
20260902101907 15 263 0.0 0.0 0.00 0.28 0.00 61 1020.9
20260902100901 15 263 0.0 0.0 0.00 0.28 0.00 61 1020.9
20260902095902 15 263 0.0 0.0 0.00 0.28 0.00 61 1021.0
20260902094901 15 263 0.0 0.0 0.00 0.28 0.00 61 1020.9
20260902093901 15 263 0.0 0.0 0.00 0.28 0.00 61 1020.8
20260902092901 15 263 0.0 1.6 0.00 0.28 0.00 61 1020.8
20260902091903 15 263 0.0 0.0 0.00 0.28 0.00 61 1020.6
20260902090902 15 262 0.0 0.0 0.00 0.28 0.00 61 1020.5
20260902090402 15 262 0.0 0.0 0.00 0.28 0.00 61 1020.4
20260902084900 16 263 0.0 0.0 0.00 0.28 0.00 61 1020.3
20260902083855 16 263 0.0 0.0 0.00 0.28 0.00 61 1020.4
20260902082855 16 263 0.0 1.6 0.00 0.28 0.00 61 1020.2
20260902080856 15 263 0.0 0.0 0.00 0.28 0.00 61 1020.5
20260902075900 15 262 0.0 0.0 0.00 0.28 0.00 61 1020.3
20260902074855 15 263 0.0 1.6 0.00 0.28 0.00 61 1020.3
20260902074356 15 263 0.0 0.0 0.00 0.28 0.00 61 1020.4
20260902072857 15 300 0.0 0.0 0.00 0.28 0.00 61 1020.3
20260902072357 15 63 0.0 0.0 0.00 0.28 0.00 61 1020.1
20260902070851 15 78 0.0 0.0 0.00 0.28 0.00 62 1019.9
20260902065851 15 77 0.0 0.0 0.00 0.28 0.00 62 1020.0
20260902064849 15 78 0.0 0.0 0.00 0.28 0.00 62 1020.0
20260902063848 15 78 0.0 0.0 0.00 0.28 0.00 62 1020.2
20260902062851 15 79 0.0 0.0 0.00 0.28 0.00 62 1020.3
20260902061850 15 78 0.0 0.0 0.00 0.28 0.00 62 1020.3
20260902060849 15 63 0.0 0.0 0.00 0.28 0.00 63 1020.4
20260902055849 15 63 0.0 1.6 0.00 0.28 0.00 63 1020.5
20260902054848 15 349 0.0 0.0 0.00 0.28 0.00 63 1020.4
20260902053844 15 328 0.0 1.6 0.00 0.28 0.00 63 1020.3
20260902052843 15 328 0.0 0.0 0.00 0.28 0.00 63 1020.1
20260902051845 15 328 0.0 0.0 0.00 0.28 0.00 63 1020.0
20260902050850 15 328 0.0 0.0 0.00 0.28 0.00 63 1019.7
20260902050843 15 328 0.0 0.0 0.00 0.28 0.00 63 1019.8
20260902045344 15 328 0.0 0.0 0.00 0.28 0.00 63 1019.6
20260902043843 15 305 0.0 0.0 0.00 0.28 0.00 63 1019.7
20260902042845 15 306 0.0 0.0 0.00 0.28 0.00 63 1019.5
20260902041842 15 51 0.0 0.0 0.00 0.28 0.00 63 1019.2
20260902040841 15 51 0.0 0.0 0.00 0.28 0.00 63 1019.4
20260902035840 15 51 0.0 1.6 0.00 0.28 0.28 63 1019.4
20260902034841 15 65 0.0 0.0 0.00 0.28 0.28 63 1019.4
20260902033840 15 65 0.0 0.0 0.00 0.28 0.28 64 1019.5
20260902032852 15 65 0.0 0.0 0.00 0.28 0.28 64 1019.4
20260902032339 15 67 0.0 0.0 0.00 0.28 0.28 63 1019.3
20260902030839 15 66 0.0 0.0 0.00 0.28 0.28 64 1019.4
20260902025839 15 67 0.0 0.0 0.00 0.28 0.28 64 1019.4
20260902024838 15 67 0.0 0.0 0.00 0.28 0.28 64 1019.3
20260902023837 15 67 0.0 0.0 0.00 0.28 0.28 64 1019.3
20260902022837 15 67 0.0 0.0 0.00 0.28 0.28 64 1019.1
20260902021837 15 60 0.0 0.0 0.00 0.28 0.28 64 1019.2
20260902020837 15 60 0.0 0.0 0.00 0.28 0.28 64 1018.9
20260902015837 15 60 0.0 0.0 0.00 0.28 0.28 64 1018.7
20260902014837 15 49 0.0 1.6 0.00 0.28 0.28 64 1018.8
20260902014340 15 49 0.0 0.0 0.00 0.28 0.28 65 1019.1
20260902012836 15 50 0.0 0.0 0.00 0.28 0.28 64 1019.1
20260902011833 15 48 0.0 0.0 0.00 0.28 0.28 65 1019.1
20260902010844 16 49 0.0 0.0 0.00 0.28 0.28 64 1018.7
20260902005831 16 50 0.0 0.0 0.00 0.28 0.28 64 1018.9
20260902004832 16 46 0.0 0.0 0.00 0.28 0.28 64 1019.1
20260902004331 16 46 0.0 0.0 0.00 0.28 0.28 64 1019.1
20260902002831 16 49 0.0 1.6 0.00 0.28 0.28 64 1019.1
20260902002334 16 54 0.0 4.8 0.00 0.28 0.28 63 1019.1
20260902001333 16 57 0.0 3.2 0.00 0.28 0.28 62 1019.0
20260901235832 16 75 0.0 1.6 0.00 0.28 0.28 62 1018.8
20260901234828 16 76 0.0 0.0 0.00 0.28 0.28 62 1018.7
20260901233825 17 56 0.0 1.6 0.00 0.28 0.28 62 1018.5
20260901232825 17 52 0.0 1.6 0.00 0.28 0.28 62 1018.5
20260901231825 17 52 0.0 1.6 0.00 0.28 0.28 62 1018.6
20260901230826 17 58 0.0 1.6 0.00 0.28 0.28 63 1018.5
20260901225825 17 56 0.0 1.6 0.00 0.28 0.28 63 1018.5
20260901224825 17 60 0.0 1.6 0.03 0.28 0.28 63 1018.4
20260901223826 17 228 0.0 1.6 0.03 0.28 0.28 63 1018.5
20260901222826 17 228 0.0 0.0 0.03 0.28 0.28 63 1018.6
20260901221822 17 228 0.0 0.0 0.03 0.28 0.28 64 1018.7
20260901220819 17 228 0.0 0.0 0.03 0.28 0.28 64 1018.9
20260901220321 17 228 0.0 0.0 0.03 0.28 0.28 63 1019.0
20260901214819 17 228 0.0 0.0 0.00 0.25 0.25 64 1018.8
20260901213819 17 228 0.0 0.0 0.00 0.25 0.25 64 1019.1
20260901212818 17 228 0.0 0.0 0.00 0.25 0.25 64 1018.8
20260901211819 17 228 0.0 1.6 0.00 0.25 0.25 64 1018.6
20260901211319 17 206 0.0 0.0 0.00 0.25 0.25 64 1018.5
20260901205817 17 206 0.0 0.0 0.00 0.25 0.25 64 1018.3
20260901204813 17 205 0.0 0.0 0.00 0.25 0.25 64 1018.2
20260901203812 17 206 0.0 0.0 0.00 0.25 0.25 64 1018.2
20260901202812 17 183 0.0 0.0 0.03 0.25 0.25 64 1018.3
20260901202311 17 183 0.0 0.0 0.03 0.25 0.25 64 1018.2
20260901200810 17 183 0.0 0.0 0.03 0.25 0.25 65 1018.1
20260901200311 17 183 0.0 0.0 0.03 0.25 0.25 65 1018.0
20260901194809 17 183 0.0 0.0 0.03 0.25 0.25 65 1018.2
20260901193809 17 183 0.0 0.0 0.05 0.25 0.25 66 1018.1
20260901192810 17 183 0.0 1.6 0.08 0.23 0.23 66 1018.0
20260901192306 17 242 0.0 0.0 0.20 0.23 0.23 65 1018.0
20260901190805 17 242 0.0 0.0 0.20 0.23 0.23 65 1017.9
20260901185804 17 198 0.0 0.0 0.20 0.23 0.23 66 1017.8
20260901184803 17 198 0.0 1.6 0.20 0.23 0.23 67 1017.7
20260901184303 17 198 0.0 1.6 0.18 0.20 0.20 69 1017.8
20260901182806 17 198 0.0 1.6 0.13 0.15 0.15 72 1017.9
20260901181804 18 141 0.0 1.6 0.00 0.03 0.03 74 1017.9
20260901180803 18 214 0.0 0.0 0.00 0.03 0.03 74 1018.0
20260901175805 19 215 0.0 1.6 0.00 0.03 0.03 74 1018.0
20260901174802 19 215 0.0 0.0 0.00 0.03 0.03 75 1018.1
20260901173802 19 173 0.0 1.6 0.00 0.03 0.03 75 1018.0
20260901172808 19 198 0.0 1.6 0.00 0.03 0.03 75 1018.0
20260901172802 19 173 0.0 1.6 0.00 0.03 0.03 75 1018.0
20260901170758 19 207 0.0 1.6 0.00 0.03 0.03 74 1017.9
20260901165757 20 205 0.0 1.6 0.00 0.03 0.03 73 1017.7
20260901164757 21 212 0.0 1.6 0.00 0.03 0.03 72 1017.7
20260901163757 21 229 0.0 1.6 0.00 0.03 0.03 73 1017.8
20260901162759 21 123 0.0 1.6 0.00 0.03 0.03 74 1017.6
20260901161756 21 145 0.0 1.6 0.00 0.03 0.03 74 1017.5
20260901161256 21 142 0.0 1.6 0.00 0.03 0.03 74 1017.6
20260901160300 21 193 0.0 1.6 0.00 0.03 0.03 74 1017.9
20260901155259 21 165 0.0 1.6 0.00 0.03 0.03 73 1017.8
20260901153753 22 166 0.0 1.6 0.00 0.03 0.03 74 1017.8
20260901153253 22 135 0.0 1.6 0.00 0.03 0.03 74 1017.8
20260901151805 22 135 0.0 1.6 0.00 0.03 0.03 72 1017.8
20260901150752 21 155 0.0 1.6 0.03 0.03 0.03 72 1017.8
20260901145752 21 134 0.0 1.6 0.03 0.03 0.03 71 1018.0
20260901144755 21 67 0.0 0.0 0.03 0.03 0.03 69 1018.3
20260901144749 21 97 0.0 0.0 0.03 0.03 0.03 71 1018.3
20260901142749 21 67 0.0 1.6 0.03 0.03 0.03 67 1018.2
20260901141750 21 43 0.0 3.2 0.03 0.03 0.03 67 1018.3
20260901140747 21 36 0.0 0.0 0.00 0.00 0.00 65 1018.3
20260901135745 21 36 0.0 0.0 0.00 0.00 0.00 66 1018.0